Hourly Data Report for August 25, 2020

SVARTEVAEG
NUNAVUT
Current Station Operator: ECCC - MSC

81°09'39.000" N
91°48'59.060" W
72.00 m
2403833
71872
NSG

Download Data

Hourly Data (August 2020)
Hourly Data Report for August 25, 2020
TIME Temp Definition
°C
Dew Point Definition
°C
Rel Hum Definition
%
Wind Dir Definition
10's deg

Wind Spd Definition
km/h
Visibility Definition
km
Stn Press Definition
kPa
Hmdx Definition


Wind Chill Definition


Weather Definition


00:00 -1.3 -1.4 99 27 5   98.98   -3 LegendNANA
01:00 -1.4 -1.5 100 32 5   98.98   -3 LegendNANA
02:00 -1.4 -1.4 100 34 12   98.96   -5 LegendNANA
03:00 -1.0 -1.0 100 35 13   98.94   -5 LegendNANA
04:00 -0.6 -0.6 100 1 11   98.94   -4 LegendNANA
05:00 -0.7 -0.7 100 2 10   98.94   -4 LegendNANA
06:00 -0.6 -0.6 100 36 14   98.96   -5 LegendNANA
07:00 -1.0 -1.0 100 35 20   98.99   -7 LegendNANA
08:00 -0.8 -0.9 99 34 26   99.02   -7 LegendNANA
09:00 -0.8 -1.1 98 35 25   99.05   -7 LegendNANA
10:00 -0.9 -1.4 97 34 25   99.09   -7 LegendNANA
11:00 -1.2 -1.9 95 33 23   99.14   -7 LegendNANA
12:00 -0.8 -1.8 93 33 25   99.19   -7 LegendNANA
13:00 -0.4 -2.0 89 33 24   99.27   -6 LegendNANA
14:00 -0.7 -2.8 86 33 19   99.33   -6 LegendNANA
15:00 -1.9 -2.5 95 35 22   99.39   -8 LegendNANA
16:00 -2.3 -2.6 98 35 28   99.44   -9 LegendNANA
17:00 -2.9 -3.1 98 34 26   99.49   -10 LegendNANA
18:00 -3.3 -3.6 98 33 20   99.55   -9 LegendNANA
19:00 -3.9 -4.4 97 34 22   99.59   -10 LegendNANA
20:00 -4.0 -4.7 95 34 14   99.63   -9 LegendNANA
21:00 -4.4 -4.7 98 33 14   99.67   -10 LegendNANA
22:00 -4.8 -5.0 98 34 11   99.69   -9 LegendNANA
23:00 -4.6 -4.8 99 33 10   99.74   -9 LegendNANA

Notes on Data Quality.

Legend

  • E = Estimated
  • M = Missing
  • NA = Not Available*
  • [empty] = Indicates an unobserved value
Date modified: